| time (UTC) | temp F | wind direction | speed MPH | gust MPH | rain 1hr in | rain 24hr in | rain mn in | humidity % | barometer mb |
| 20260904093728 | 79 | 0 | 0.0 | 1.0 | 0.00 | 0.00 | 0.00 | 96 | 999.6 |
| 20260904092714 | 79 | 0 | 1.0 | 2.0 | 0.00 | 0.00 | 0.00 | 96 | 999.5 |
| 20260904091713 | 78 | 0 | 0.0 | 0.0 | 0.00 | 0.00 | 0.00 | 96 | 999.1 |
| 20260904091149 | 78 | 0 | 0.0 | 1.0 | 0.00 | 0.00 | 0.00 | 96 | 998.7 |
| 20260904085713 | 78 | 0 | 0.0 | 0.0 | 0.00 | 0.00 | 0.00 | 96 | 999.0 |
| 20260904084714 | 78 | 0 | 0.0 | 0.0 | 0.00 | 0.00 | 0.00 | 96 | 998.9 |
| 20260904084439 | 78 | 0 | 0.0 | 0.0 | 0.00 | 0.00 | 0.00 | 96 | 998.7 |
| 20260904082715 | 79 | 0 | 0.0 | 1.0 | 0.00 | 0.00 | 0.00 | 96 | 998.9 |
| 20260904081700 | 79 | 0 | 1.0 | 1.0 | 0.00 | 0.00 | 0.00 | 96 | 999.1 |
| 20260904080701 | 79 | 74 | 1.0 | 2.0 | 0.00 | 0.00 | 0.00 | 96 | 999.1 |
| 20260904080137 | 79 | 42 | 1.0 | 2.0 | 0.00 | 0.00 | 0.00 | 96 | 999.3 |
| 20260904074701 | 79 | 0 | 0.0 | 2.0 | 0.00 | 0.00 | 0.00 | 96 | 999.3 |
| 20260904073701 | 79 | 0 | 0.0 | 2.0 | 0.00 | 0.00 | 0.00 | 96 | 999.4 |
| 20260904072700 | 78 | 0 | 0.0 | 1.0 | 0.00 | 0.00 | 0.00 | 96 | 999.5 |
| 20260904071700 | 78 | 46 | 0.0 | 2.0 | 0.00 | 0.00 | 0.00 | 95 | 999.5 |
| 20260904070657 | 78 | 50 | 0.0 | 1.0 | 0.00 | 0.00 | 0.00 | 95 | 999.4 |
| 20260904065657 | 78 | 49 | 0.0 | 1.0 | 0.00 | 0.00 | 0.00 | 95 | 999.1 |
| 20260904065135 | 78 | 0 | 0.0 | 1.0 | 0.00 | 0.00 | 0.00 | 95 | 998.9 |
| 20260904063653 | 78 | 0 | 0.0 | 2.0 | 0.00 | 0.00 | 0.00 | 95 | 998.7 |
| 20260904062654 | 78 | 45 | 0.0 | 1.0 | 0.00 | 0.00 | 0.00 | 95 | 998.9 |
| 20260904061653 | 78 | 0 | 0.0 | 0.0 | 0.00 | 0.00 | 0.00 | 95 | 999.4 |
| 20260904060653 | 78 | 0 | 0.0 | 2.0 | 0.00 | 0.00 | 0.00 | 95 | 999.3 |
| 20260904055654 | 78 | 38 | 0.0 | 2.0 | 0.00 | 0.00 | 0.00 | 95 | 999.1 |
| 20260904055140 | 79 | 106 | 0.0 | 2.0 | 0.00 | 0.00 | 0.00 | 95 | 999.6 |
| 20260904054131 | 79 | 0 | 1.0 | 2.0 | 0.00 | 0.00 | 0.00 | 94 | 999.7 |
| 20260904052704 | 79 | 90 | 0.0 | 2.0 | 0.00 | 0.00 | 0.00 | 94 | 999.6 |
| 20260904050651 | 79 | 0 | 0.0 | 1.0 | 0.00 | 0.00 | 0.00 | 94 | 999.8 |
| 20260904045651 | 79 | 0 | 0.0 | 1.0 | 0.00 | 0.00 | 0.00 | 94 | 999.9 |
| 20260904044652 | 79 | 0 | 0.0 | 1.0 | 0.00 | 0.00 | 0.00 | 93 | 1000.0 |
| 20260904043652 | 79 | 0 | 0.0 | 1.0 | 0.00 | 0.00 | 0.00 | 93 | 999.9 |
| 20260904043130 | 80 | 0 | 0.0 | 1.0 | 0.00 | 0.00 | 0.00 | 93 | 1000.1 |
| 20260904041653 | 80 | 0 | 1.0 | 2.0 | 0.00 | 0.00 | 0.00 | 93 | 1000.2 |
| 20260904040652 | 80 | 0 | 1.0 | 3.0 | 0.00 | 0.00 | 0.00 | 93 | 1000.3 |
| 20260904035651 | 80 | 55 | 1.0 | 3.0 | 0.00 | 0.00 | 0.00 | 93 | 1000.4 |
| 20260904034650 | 80 | 29 | 1.0 | 5.0 | 0.00 | 0.00 | 0.00 | 92 | 1000.5 |
| 20260904033651 | 80 | 76 | 1.0 | 4.0 | 0.00 | 0.00 | 0.00 | 92 | 1000.5 |
| 20260904032651 | 80 | 99 | 2.0 | 4.0 | 0.00 | 0.00 | 0.00 | 92 | 1000.5 |
| 20260904031647 | 80 | 88 | 1.0 | 3.0 | 0.00 | 0.00 | 0.00 | 92 | 1000.4 |
| 20260904030644 | 80 | 25 | 2.0 | 4.0 | 0.00 | 0.00 | 0.00 | 91 | 1000.7 |
| 20260904025646 | 80 | 64 | 2.0 | 3.0 | 0.00 | 0.00 | 0.00 | 91 | 1000.5 |
| 20260904024645 | 80 | 66 | 1.0 | 3.0 | 0.00 | 0.00 | 0.00 | 91 | 1000.0 |
| 20260904023644 | 80 | 66 | 1.0 | 3.0 | 0.00 | 0.00 | 0.00 | 90 | 999.9 |
| 20260904022645 | 80 | 12 | 1.0 | 3.0 | 0.00 | 0.00 | 0.00 | 90 | 999.9 |
| 20260904021646 | 80 | 100 | 1.0 | 2.0 | 0.00 | 0.00 | 0.00 | 90 | 999.9 |
| 20260904020643 | 80 | 135 | 2.0 | 4.0 | 0.00 | 0.00 | 0.00 | 90 | 999.9 |
| 20260904015642 | 80 | 73 | 2.0 | 4.0 | 0.00 | 0.00 | 0.00 | 90 | 999.9 |
| 20260904014643 | 80 | 56 | 2.0 | 4.0 | 0.00 | 0.00 | 0.00 | 90 | 999.9 |
| 20260904012643 | 80 | 48 | 2.0 | 4.0 | 0.00 | 0.00 | 0.00 | 90 | 999.8 |
| 20260904011643 | 80 | 81 | 2.0 | 4.0 | 0.00 | 0.00 | 0.00 | 90 | 999.7 |
| 20260904010643 | 80 | 84 | 2.0 | 3.0 | 0.00 | 0.00 | 0.00 | 89 | 999.5 |
| 20260904005644 | 80 | 83 | 1.0 | 3.0 | 0.00 | 0.00 | 0.00 | 89 | 999.1 |
| 20260904004640 | 81 | 46 | 2.0 | 4.0 | 0.00 | 0.00 | 0.00 | 88 | 999.3 |
| 20260904003642 | 81 | 69 | 2.0 | 4.0 | 0.00 | 0.00 | 0.00 | 88 | 999.6 |
| 20260904002642 | 81 | 89 | 2.0 | 4.0 | 0.00 | 0.00 | 0.00 | 87 | 999.6 |
| 20260904001642 | 81 | 52 | 2.0 | 3.0 | 0.00 | 0.00 | 0.00 | 87 | 999.6 |
| 20260904001117 | 81 | 106 | 2.0 | 3.0 | 0.00 | 0.00 | 0.00 | 87 | 999.6 |
| 20260903235642 | 81 | 78 | 1.0 | 2.0 | 0.00 | 0.00 | 0.00 | 87 | 999.3 |
| 20260903234655 | 82 | 133 | 1.0 | 3.0 | 0.00 | 0.00 | 0.00 | 86 | 999.4 |
| 20260903233639 | 82 | 62 | 2.0 | 4.0 | 0.00 | 0.00 | 0.00 | 86 | 999.6 |
| 20260903232639 | 82 | 47 | 2.0 | 5.0 | 0.00 | 0.00 | 0.00 | 85 | 999.9 |
| 20260903232108 | 82 | 37 | 3.0 | 7.0 | 0.00 | 0.00 | 0.00 | 85 | 1000.2 |
| 20260903230648 | 83 | 44 | 3.0 | 6.0 | 0.00 | 0.00 | 0.00 | 84 | 1000.4 |
| 20260903225635 | 83 | 12 | 3.0 | 8.0 | 0.00 | 0.00 | 0.00 | 84 | 1000.6 |
| 20260903225118 | 83 | 40 | 3.0 | 6.0 | 0.00 | 0.00 | 0.00 | 83 | 1000.6 |
| 20260903223636 | 83 | 70 | 4.0 | 7.0 | 0.00 | 0.00 | 0.00 | 83 | 1000.7 |
| 20260903222636 | 83 | 59 | 3.0 | 6.0 | 0.00 | 0.00 | 0.00 | 83 | 1000.9 |
| 20260903221633 | 83 | 74 | 3.0 | 6.0 | 0.00 | 0.01 | 0.00 | 82 | 1001.0 |
| 20260903221125 | 83 | 49 | 4.0 | 7.0 | 0.00 | 0.03 | 0.00 | 81 | 1001.2 |
| 20260903215633 | 83 | 48 | 3.0 | 5.0 | 0.00 | 0.03 | 0.00 | 80 | 1001.3 |
| 20260903214634 | 83 | 59 | 3.0 | 6.0 | 0.00 | 0.03 | 0.00 | 79 | 1001.6 |
| 20260903213634 | 83 | 19 | 3.0 | 6.0 | 0.00 | 0.03 | 0.00 | 80 | 1001.8 |
| 20260903213112 | 83 | 23 | 3.0 | 5.0 | 0.00 | 0.03 | 0.00 | 82 | 1001.8 |
| 20260903211635 | 83 | 40 | 3.0 | 7.0 | 0.00 | 0.03 | 0.00 | 83 | 1001.8 |
| 20260903210634 | 83 | 113 | 4.0 | 7.0 | 0.00 | 0.03 | 0.00 | 82 | 1001.6 |
| 20260903205644 | 83 | 106 | 3.0 | 6.0 | 0.00 | 0.03 | 0.00 | 81 | 1002.1 |
| 20260903204633 | 83 | 35 | 4.0 | 8.0 | 0.00 | 0.03 | 0.00 | 82 | 1002.3 |
| 20260903203633 | 83 | 52 | 4.0 | 9.0 | 0.00 | 0.03 | 0.00 | 83 | 1002.8 |
| 20260903202633 | 84 | 25 | 4.0 | 7.0 | 0.00 | 0.03 | 0.00 | 83 | 1003.2 |
| 20260903201633 | 84 | 31 | 4.0 | 8.0 | 0.00 | 0.07 | 0.00 | 84 | 1003.8 |
| 20260903200633 | 84 | 45 | 4.0 | 9.0 | 0.00 | 0.15 | 0.00 | 83 | 1003.4 |
| 20260903195633 | 84 | 78 | 5.0 | 9.0 | 0.00 | 0.15 | 0.00 | 82 | 1003.0 |
| 20260903194633 | 85 | 13 | 5.0 | 9.0 | 0.00 | 0.15 | 0.00 | 81 | 1004.6 |
| 20260903194116 | 85 | 79 | 5.0 | 9.0 | 0.00 | 0.15 | 0.00 | 80 | 1005.2 |
| 20260903192643 | 85 | 345 | 5.0 | 9.0 | 0.00 | 0.15 | 0.00 | 79 | 1006.2 |
| 20260903191629 | 85 | 6 | 5.0 | 9.0 | 0.00 | 0.15 | 0.00 | 80 | 1004.4 |
| 20260903190630 | 85 | 60 | 5.0 | 10.0 | 0.00 | 0.15 | 0.00 | 80 | 1005.8 |
| 20260903185630 | 85 | 78 | 5.0 | 10.0 | 0.00 | 0.15 | 0.00 | 81 | 1005.0 |
| 20260903184630 | 86 | 20 | 5.0 | 10.0 | 0.00 | 0.15 | 0.00 | 78 | 1008.9 |
| 20260903183631 | 85 | 45 | 6.0 | 9.0 | 0.00 | 0.15 | 0.00 | 82 | 1008.9 |
| 20260903182627 | 85 | 36 | 5.0 | 9.0 | 0.00 | 0.15 | 0.00 | 84 | 1010.6 |
| 20260903181627 | 84 | 46 | 4.0 | 8.0 | 0.00 | 0.15 | 0.00 | 84 | 1009.3 |
| 20260903181104 | 84 | 39 | 5.0 | 9.0 | 0.00 | 0.15 | 0.00 | 85 | 1006.4 |
| 20260903180107 | 84 | 34 | 5.0 | 9.0 | 0.00 | 0.15 | 0.00 | 84 | 1007.1 |
| 20260903174627 | 83 | 26 | 4.0 | 8.0 | 0.00 | 0.15 | 0.00 | 85 | 1005.7 |
| 20260903174105 | 83 | 71 | 4.0 | 9.0 | 0.00 | 0.15 | 0.00 | 85 | 1004.9 |
| 20260903172626 | 83 | 59 | 4.0 | 9.0 | 0.00 | 0.15 | 0.00 | 84 | 1004.7 |
| 20260903172110 | 83 | 37 | 5.0 | 11.0 | 0.00 | 0.15 | 0.00 | 84 | 1004.9 |
| 20260903171102 | 83 | 32 | 5.0 | 11.0 | 0.00 | 0.15 | 0.00 | 83 | 1004.8 |
| 20260903165628 | 83 | 36 | 4.0 | 8.0 | 0.00 | 0.15 | 0.00 | 85 | 1004.6 |
| 20260903164625 | 83 | 53 | 5.0 | 9.0 | 0.00 | 0.15 | 0.00 | 85 | 1003.5 |
| 20260903163626 | 83 | 63 | 5.0 | 10.0 | 0.00 | 0.15 | 0.00 | 83 | 1003.8 |
| 20260903162626 | 84 | 51 | 5.0 | 9.0 | 0.00 | 0.15 | 0.00 | 81 | 1004.5 |
| 20260903160626 | 85 | 24 | 5.0 | 9.0 | 0.00 | 0.15 | 0.00 | 82 | 1005.0 |
| 20260903155626 | 85 | 29 | 5.0 | 10.0 | 0.00 | 0.15 | 0.00 | 82 | 1005.4 |
| 20260903154626 | 85 | 34 | 5.0 | 9.0 | 0.00 | 0.15 | 0.00 | 82 | 1005.0 |
| 20260903153625 | 85 | 32 | 5.0 | 10.0 | 0.00 | 0.15 | 0.00 | 81 | 1004.3 |
| 20260903152625 | 85 | 30 | 6.0 | 10.0 | 0.00 | 0.15 | 0.00 | 82 | 1005.4 |
| 20260903151625 | 86 | 23 | 5.0 | 10.0 | 0.00 | 0.15 | 0.00 | 81 | 1007.3 |
| 20260903150625 | 86 | 27 | 5.0 | 10.0 | 0.00 | 0.15 | 0.00 | 80 | 1009.1 |
| 20260903145625 | 87 | 39 | 5.0 | 10.0 | 0.00 | 0.15 | 0.00 | 80 | 1008.1 |
| 20260903144625 | 87 | 6 | 6.0 | 10.0 | 0.00 | 0.15 | 0.00 | 80 | 1010.2 |
| 20260903143625 | 87 | 49 | 5.0 | 9.0 | 0.00 | 0.15 | 0.00 | 80 | 1009.1 |
| 20260903142622 | 86 | 50 | 5.0 | 9.0 | 0.00 | 0.15 | 0.00 | 80 | 1010.2 |
| 20260903141620 | 86 | 29 | 5.0 | 9.0 | 0.00 | 0.15 | 0.00 | 81 | 1010.0 |
| 20260903140618 | 86 | 21 | 5.0 | 10.0 | 0.00 | 0.15 | 0.00 | 82 | 1010.3 |
| 20260903135619 | 85 | 35 | 5.0 | 9.0 | 0.00 | 0.15 | 0.00 | 83 | 1010.1 |
| 20260903134619 | 85 | 18 | 5.0 | 8.0 | 0.00 | 0.15 | 0.00 | 85 | 1009.3 |
| 20260903133620 | 85 | 8 | 5.0 | 9.0 | 0.00 | 0.15 | 0.00 | 86 | 1007.4 |
| 20260903132619 | 84 | 44 | 4.0 | 9.0 | 0.00 | 0.15 | 0.00 | 87 | 1005.7 |
| 20260903131619 | 84 | 30 | 4.0 | 9.0 | 0.00 | 0.15 | 0.00 | 87 | 1005.0 |
| 20260903130619 | 84 | 36 | 4.0 | 7.0 | 0.00 | 0.15 | 0.00 | 88 | 1004.5 |
| 20260903125957 | 84 | 25 | 4.0 | 8.0 | 0.00 | 0.15 | 0.00 | 89 | 1004.2 |
| 20260903124617 | 83 | 7 | 4.0 | 8.0 | 0.00 | 0.15 | 0.00 | 90 | 1003.8 |
| 20260903124052 | 83 | 31 | 4.0 | 6.0 | 0.00 | 0.15 | 0.00 | 92 | 1004.1 |
| 20260903122616 | 82 | 34 | 3.0 | 7.0 | 0.00 | 0.15 | 0.00 | 93 | 1003.3 |
| 20260903121617 | 82 | 37 | 3.0 | 5.0 | 0.00 | 0.15 | 0.00 | 94 | 1003.5 |
| 20260903120618 | 81 | 36 | 3.0 | 4.0 | 0.00 | 0.15 | 0.00 | 94 | 1002.7 |
| 20260903115602 | 81 | 53 | 3.0 | 4.0 | 0.00 | 0.15 | 0.00 | 95 | 1002.4 |
| 20260903115047 | 80 | 26 | 3.0 | 4.0 | 0.00 | 0.15 | 0.00 | 95 | 1001.8 |
| 20260903114050 | 80 | 56 | 3.0 | 4.0 | 0.00 | 0.15 | 0.00 | 95 | 1001.3 |
| 20260903112604 | 80 | 25 | 2.0 | 3.0 | 0.00 | 0.15 | 0.00 | 95 | 1000.8 |
| 20260903111603 | 79 | 15 | 1.0 | 2.0 | 0.00 | 0.15 | 0.00 | 95 | 999.9 |
| 20260903110604 | 79 | 0 | 1.0 | 3.0 | 0.00 | 0.15 | 0.00 | 95 | 999.9 |
| 20260903105604 | 79 | 53 | 2.0 | 3.0 | 0.00 | 0.15 | 0.00 | 96 | 1000.1 |
| 20260903105040 | 79 | 34 | 2.0 | 3.0 | 0.00 | 0.15 | 0.00 | 96 | 999.8 |
| 20260903103548 | 79 | 0 | 1.0 | 2.0 | 0.00 | 0.15 | 0.00 | 96 | 999.4 |
| 20260903102534 | 79 | 41 | 2.0 | 3.0 | 0.00 | 0.15 | 0.00 | 96 | 999.5 |
| 20260903101533 | 79 | 53 | 2.0 | 4.0 | 0.00 | 0.15 | 0.00 | 96 | 999.5 |
| 20260903100533 | 79 | 26 | 3.0 | 4.0 | 0.00 | 0.15 | 0.00 | 96 | 999.7 |
| 20260903095533 | 80 | 35 | 2.0 | 5.0 | 0.00 | 0.15 | 0.00 | 96 | 999.7 |
| 20260903094533 | 80 | 9 | 2.0 | 4.0 | 0.00 | 0.15 | 0.00 | 96 | 999.8 |